Showing default

OPS 9311 (IDSCS 1), 2215

Orbit data source: Space-Track

OPS 9311 (IDSCS 1), 2215 is a payload satellite owned by USAF SSD (US) in GEO that was launched on Thu, 16 Jun 1966 UTC via a TITAN IIIC launch vehicle from the Air Force Eastern Test Range (AFETR). Payload-class satellites include a variety of spacecraft equipped with specific instruments for various scientific and technological missions. These include communications satellites like Starlink; space stations such as the ISS; scientific satellites like the Hubble; Earth observation satellites from companies like Planet Labs, Umbra, and HawkEye 360; GPS; miniature CubeSats for education and research; and military/defense satellites.

Loading next visibility...
Identifier
2215, 1966-053B
Orbit
GEO
Country
Flag of USUS
Related business
Manufacturer
Philco-Ford WDL
Mission
Non-operational spacecraft
Bus & Motor
IDCSP, Unknown motor
Mass
45 kg wet, 45 kg dry
Launch date (UTC)
1966-06-16 (60 years ago)
Launch vehicle
TITAN IIIC
Launch site
Air Force Eastern Test Range (AFETR)
Object type
Payload
Rocket body
Debris
Shape & HBR
Unknown
Radar Cross Section
Medium (>0.1 m² and <1 m²)

Expand to show TLE details & history
Last TLE update: 2 days ago

TLE from 2 days ago
0 OPS 9311 (IDSCS 1)
1 02215U 66053B   26035.29644210 -.00000063  00000-0  00000-0 0  9994
2 02215   8.4259  44.9169 0031989 223.2046 136.6428  1.07908478132934
Epoch: 2026-02-04T07:06Z
TLE epoch observation values (Epoch: 2026-02-04T07:06:52.597Z)
Latitude
Longitude
163.85315°
Altitude
33,865.655 km
Speed
3.144 km/s
True Right ascension
03h 00m 08s
True Declination
0° 00' 00"
Sunlit
Object was in daylight at epoch
Visualization orbit readout
Latitude
Unknown
Longitude
Unknown
Altitude
Unknown
Speed
Unknown
Apparent Right ascension
Unknown
Apparent Declination
Unknown
Sunlit
N/A
Visualization observer readout
Local Sidereal Time
06:59:48
Azimuth
Unknown
Elevation
Unknown
Doppler factor
Unknown
Orbital elements
Apogee altitude
33,902.555 km
Perigee altitude
33,645.669 km
Semi-major axis
40,152.249 km
Eccentricity
0.0032
Inclination
8.4259°
RAAN
44.9169°
Arg. of periapsis
223.2046°
True anomaly
136.89373°
Mean anomaly
136.6428°
Eccentric anomaly
136.76834°
Mean motion
0.26976 °/min
Orbital period
1,334.52 mins
BSTAR
0
Loading maneuver chart data...
Computing Atmospheric mass density...
Loading historical data...
Loading historical data...
Loading historical data...
Loading historical data...
Loading historical data...
Loading historical data...
Loading historical data...

Documentation

Showing up to 5 results
|